Location: Unspecified
(0.0000°N, 0.0000°E)
Time: 19:59:54
(UTC+01:00)

Orbus 21S - Visible Passes

Search period start: 21 November 2014 00:00
Search period end: 01 December 2014 00:00
Orbit: 311 x 33448 km, 24.1° (Epoch: 20 November)

Date Brightness Start Highest point End Pass type
(mag) Time Alt. Az. Time Alt. Az. Time Alt. Az.
21 Nov 6.7 18:45:48 10° W 03:44:08 75° SSE 03:55:52 10° ENE visible
22 Nov 6.5 14:06:41 10° NW 14:16:47 52° NE 23:07:55 10° ESE visible
23 Nov 5.5 19:56:50 10° W 04:52:50 84° NNW 05:00:09 10° ENE visible
24 Nov 7.2 15:10:35 10° NW 15:25:23 75° NE 00:19:24 10° E visible
26 Nov 4.9 05:16:21 10° WSW 05:58:27 49° NW 06:03:35 10° NE visible
26 Nov 7.8 16:15:08 10° WNW 16:39:43 87° SSW 01:27:17 10° E visible
27 Nov 9.6 16:37:53 10° ESE 18:42:13 17° ESE 19:55:20 10° ESE visible
27 Nov 10.7 23:18:39 10° WSW 23:51:41 11° WSW 00:33:43 10° WSW visible
28 Nov 7.3 17:20:43 10° WNW 18:09:21 73° SSW 02:33:05 10° E visible
29 Nov 6.0 12:45:08 10° NNW 12:52:16 34° NE 21:33:32 10° ESE visible
30 Nov 9.5 18:28:10 10° W 19:53:31 59° SW 00:00:00 42° SW visible
